カタログに戻る

STARLINK-38065

運用中通信SSO
NORAD 69982·PAYLOAD·🇺🇸 United States

打ち上げ Jul 11, 2026 から Vandenberg Space Force Base

Loading…

次のパス (今後24時間)

TLE

最新Source: CelesTrak SupGP

元期: Sep 14, 2026, 23:08 UTC

1 69982C 26159H   26257.96437500 -.02542200  00000+0 -34979-1 0  2579
2 69982  97.2851  99.7023 0002106  96.0665  76.4751 15.58589146    12

AllMySatでSTARLINK-38065をリアルタイム追跡

Download on the App Store